�������l�o���
Date,Time,MP-1(��Sv/h),MP-2(��Sv/h),MP-3(��Sv/h),MP-4(��Sv/h),MP-5(��Sv/h),MP-6(��Sv/h),MP-7(��Sv/h),MP-8(��Sv/h),����,����(m/s),���J
2021/01/02,00:00,0.660,0.943,0.602,1.186,0.837,0.375,0.670,0.630,�k�k��,2.8,��
2021/01/02,00:10,0.660,0.941,0.604,1.187,0.837,0.374,0.667,0.631,�k�k��,3.6,��
2021/01/02,00:20,0.661,0.941,0.603,1.186,0.837,0.375,0.667,0.631,�k�k��,3.8,��
2021/01/02,00:30,0.659,0.941,0.603,1.189,0.837,0.375,0.669,0.631,�k�k��,3.5,��
2021/01/02,00:40,0.662,0.939,0.602,1.186,0.837,0.374,0.667,0.631,�k�k��,3.6,��
2021/01/02,00:50,0.660,0.941,0.604,1.187,0.836,0.375,0.669,0.630,�k�k��,5.5,��
2021/01/02,01:00,0.660,0.941,0.602,1.186,0.836,0.375,0.670,0.629,�k�k��,5.1,��
2021/01/02,01:10,0.659,0.942,0.603,1.185,0.836,0.375,0.666,0.631,�k�k��,5.3,��
2021/01/02,01:20,0.660,0.940,0.602,1.187,0.836,0.375,0.668,0.630,�k�k��,5.4,��
2021/01/02,01:30,0.660,0.944,0.601,1.186,0.835,0.375,0.668,0.630,�k��,6.3,��
2021/01/02,01:40,0.659,0.942,0.603,1.188,0.837,0.374,0.668,0.631,�k��,5.8,��
2021/01/02,01:50,0.660,0.942,0.602,1.189,0.835,0.373,0.670,0.630,�k��,6.1,��
2021/01/02,02:00,0.659,0.942,0.601,1.190,0.836,0.374,0.669,0.630,�k�k��,6.1,��
2021/01/02,02:10,0.661,0.940,0.602,1.187,0.838,0.374,0.669,0.630,�k�k��,6.6,��
2021/01/02,02:20,0.660,0.940,0.600,1.190,0.836,0.375,0.669,0.629,�k��,6.5,��
2021/01/02,02:30,0.660,0.941,0.602,1.188,0.834,0.375,0.670,0.629,�k��,7.1,��
2021/01/02,02:40,0.661,0.940,0.603,1.187,0.836,0.376,0.669,0.630,�k��,7.7,��
2021/01/02,02:50,0.661,0.940,0.603,1.188,0.835,0.374,0.669,0.630,�k��,8.7,��
2021/01/02,03:00,0.661,0.942,0.601,1.188,0.837,0.374,0.670,0.631,�k��,9.1,��
2021/01/02,03:10,0.661,0.940,0.601,1.190,0.838,0.375,0.668,0.632,�k��,8.7,��
2021/01/02,03:20,0.659,0.941,0.601,1.189,0.836,0.374,0.669,0.631,�k��,6.8,��
2021/01/02,03:30,0.659,0.941,0.601,1.188,0.834,0.374,0.670,0.631,�k��,7.5,��
2021/01/02,03:40,0.660,0.941,0.601,1.188,0.837,0.374,0.669,0.630,�k��,7.6,��
2021/01/02,03:50,0.661,0.941,0.600,1.186,0.835,0.376,0.670,0.631,�k��,7.9,��
2021/01/02,04:00,0.662,0.943,0.603,1.191,0.836,0.374,0.670,0.630,�k��,8.7,��
2021/01/02,04:10,0.661,0.940,0.600,1.186,0.838,0.376,0.668,0.629,���k��,7.7,��
2021/01/02,04:20,0.660,0.942,0.601,1.187,0.837,0.376,0.669,0.631,�k��,7.7,��
2021/01/02,04:30,0.661,0.941,0.602,1.187,0.838,0.376,0.670,0.632,�k��,7.2,��
2021/01/02,04:40,0.662,0.942,0.602,1.190,0.836,0.375,0.670,0.631,�k��,7.3,��
2021/01/02,04:50,0.660,0.941,0.603,1.188,0.836,0.376,0.669,0.629,�k��,7.3,��
2021/01/02,05:00,0.660,0.943,0.603,1.187,0.834,0.377,0.669,0.631,���k��,8.0,��
2021/01/02,05:10,0.660,0.943,0.603,1.188,0.836,0.376,0.670,0.630,���k��,7.0,��
2021/01/02,05:20,0.662,0.939,0.602,1.186,0.836,0.375,0.670,0.631,���k��,6.4,��
2021/01/02,05:30,0.661,0.942,0.603,1.186,0.837,0.375,0.670,0.631,���k��,6.2,��
2021/01/02,05:40,0.662,0.940,0.601,1.188,0.837,0.376,0.670,0.630,�k��,5.8,��
2021/01/02,05:50,0.661,0.943,0.602,1.188,0.836,0.375,0.670,0.631,�k�k��,3.7,��
2021/01/02,06:00,0.660,0.943,0.602,1.187,0.837,0.377,0.669,0.629,�k�k��,5.8,��
2021/01/02,06:10,0.662,0.939,0.602,1.185,0.835,0.375,0.669,0.630,�k��,5.1,��
2021/01/02,06:20,0.662,0.941,0.602,1.189,0.837,0.376,0.671,0.631,�k��,6.3,��
2021/01/02,06:30,0.661,0.941,0.602,1.189,0.838,0.374,0.671,0.631,�k�k��,5.0,��
2021/01/02,06:40,0.661,0.941,0.602,1.187,0.837,0.375,0.670,0.631,�k�k��,3.8,��
2021/01/02,06:50,0.659,0.942,0.602,1.188,0.837,0.376,0.669,0.632,�k�k��,2.6,��
2021/01/02,07:00,0.661,0.944,0.601,1.191,0.838,0.376,0.669,0.632,�k,3.6,��
2021/01/02,07:10,0.661,0.943,0.603,1.188,0.835,0.375,0.669,0.630,�k,3.6,��
2021/01/02,07:20,0.661,0.943,0.603,1.188,0.836,0.374,0.668,0.631,�k,3.6,��
2021/01/02,07:30,0.661,0.941,0.602,1.188,0.838,0.374,0.669,0.631,�k,3.6,��
2021/01/02,07:40,0.662,0.941,0.603,1.190,0.838,0.375,0.668,0.631,�k,4.0,��
2021/01/02,07:50,0.660,0.942,0.603,1.187,0.837,0.375,0.669,0.631,�k�k��,4.3,��
2021/01/02,08:00,0.660,0.941,0.603,1.190,0.836,0.376,0.669,0.632,�k,4.5,��
2021/01/02,08:10,0.660,0.943,0.604,1.188,0.837,0.374,0.667,0.632,�k,5.1,��
2021/01/02,08:20,0.660,0.942,0.602,1.188,0.838,0.374,0.669,0.631,�k,5.4,��
2021/01/02,08:30,0.660,0.943,0.602,1.191,0.836,0.374,0.669,0.630,�k,4.1,��
2021/01/02,08:40,0.660,0.941,0.603,1.187,0.839,0.374,0.668,0.631,�k�k��,4.6,��
2021/01/02,08:50,0.660,0.943,0.602,1.191,0.837,0.375,0.669,0.629,�k�k��,4.0,��
2021/01/02,09:00,0.661,0.943,0.602,1.189,0.837,0.375,0.669,0.631,�k�k��,3.8,��
2021/01/02,09:10,0.662,0.945,0.602,1.189,0.838,0.375,0.670,0.631,�k�k��,4.1,��
2021/01/02,09:20,0.660,0.944,0.603,1.189,0.839,0.375,0.670,0.631,�k�k��,4.0,��
2021/01/02,09:30,0.660,0.944,0.604,1.188,0.838,0.375,0.670,0.631,�k,4.6,��
2021/01/02,09:40,0.663,0.945,0.604,1.187,0.839,0.376,0.669,0.631,�k,4.0,��
2021/01/02,09:50,0.661,0.944,0.605,1.190,0.839,0.376,0.671,0.632,�k,3.5,��
2021/01/02,10:00,0.661,0.946,0.606,1.187,0.838,0.376,0.668,0.631,�k�k��,4.2,��
2021/01/02,10:10,0.662,0.943,0.603,1.189,0.838,0.376,0.668,0.632,�k�k��,5.2,��
2021/01/02,10:20,0.661,0.945,0.602,1.186,0.838,0.376,0.669,0.633,�k�k��,5.4,��
2021/01/02,10:30,0.660,0.943,0.604,1.190,0.839,0.377,0.668,0.631,�k,6.0,��
2021/01/02,10:40,0.660,0.946,0.603,1.189,0.838,0.376,0.668,0.632,�k,4.7,��
2021/01/02,10:50,0.661,0.945,0.605,1.189,0.839,0.376,0.669,0.631,�k�k��,4.8,��
2021/01/02,11:00,0.661,0.943,0.604,1.191,0.840,0.376,0.669,0.630,�k,4.7,��
2021/01/02,11:10,0.661,0.944,0.605,1.189,0.841,0.376,0.669,0.631,�k�k��,5.0,��
2021/01/02,11:20,0.661,0.943,0.604,1.191,0.839,0.377,0.669,0.630,�k,4.1,��
2021/01/02,11:30,0.662,0.946,0.604,1.192,0.841,0.377,0.668,0.631,�k,3.7,��
2021/01/02,11:40,0.664,0.947,0.604,1.189,0.841,0.376,0.668,0.632,�k,3.3,��
2021/01/02,11:50,0.662,0.947,0.606,1.190,0.841,0.376,0.670,0.633,�k�k��,3.9,��
2021/01/02,12:00,0.664,0.946,0.605,1.190,0.841,0.376,0.668,0.632,�k�k��,3.9,��
2021/01/02,12:10,0.663,0.946,0.604,1.190,0.841,0.377,0.670,0.633,�k�k��,4.8,��
2021/01/02,12:20,0.664,0.947,0.605,1.192,0.841,0.376,0.671,0.632,�k�k��,5.3,��
2021/01/02,12:30,0.663,0.946,0.604,1.193,0.839,0.377,0.672,0.631,�k�k��,3.9,��
2021/01/02,12:40,0.662,0.948,0.607,1.191,0.842,0.375,0.670,0.631,�k�k��,3.7,��
2021/01/02,12:50,0.662,0.947,0.603,1.191,0.841,0.378,0.669,0.633,�k�k��,3.8,��
2021/01/02,13:00,0.664,0.948,0.605,1.191,0.841,0.376,0.671,0.632,�k,4.2,��
2021/01/02,13:10,0.663,0.949,0.607,1.191,0.842,0.377,0.669,0.631,�k,3.6,��
2021/01/02,13:20,0.663,0.947,0.606,1.189,0.842,0.376,0.670,0.631,�k,4.5,��
2021/01/02,13:30,0.663,0.947,0.606,1.189,0.843,0.378,0.669,0.631,�k,3.7,��
2021/01/02,13:40,0.662,0.949,0.604,1.189,0.843,0.377,0.670,0.631,�k,4.3,��
2021/01/02,13:50,0.662,0.945,0.605,1.192,0.843,0.377,0.669,0.631,�k,3.5,��
2021/01/02,14:00,0.663,0.947,0.603,1.191,0.845,0.376,0.671,0.630,�k,3.2,��
2021/01/02,14:10,0.663,0.948,0.604,1.191,0.843,0.376,0.670,0.632,�k,4.5,�L
2021/01/02,14:20,0.661,0.946,0.604,1.191,0.842,0.376,0.669,0.632,�k��,4.0,�L
2021/01/02,14:30,0.663,0.948,0.603,1.190,0.842,0.378,0.669,0.632,�k�k��,3.9,�L
2021/01/02,14:40,0.663,0.948,0.607,1.192,0.843,0.377,0.671,0.631,�k��,4.1,�L
2021/01/02,14:50,0.662,0.947,0.605,1.191,0.844,0.375,0.670,0.631,�k�k��,4.1,�L
2021/01/02,15:00,0.661,0.948,0.605,1.194,0.843,0.376,0.671,0.631,�k,3.8,�L
2021/01/02,15:10,0.664,0.946,0.605,1.192,0.843,0.377,0.670,0.631,�k,3.0,�L
2021/01/02,15:20,0.662,0.947,0.605,1.191,0.845,0.377,0.669,0.632,�k��,2.8,�L
2021/01/02,15:30,0.663,0.946,0.606,1.190,0.843,0.376,0.669,0.631,�k�k��,2.3,�L
2021/01/02,15:40,0.661,0.946,0.605,1.191,0.843,0.376,0.670,0.631,�k,2.8,�L
2021/01/02,15:50,0.663,0.948,0.605,1.188,0.842,0.378,0.670,0.631,�k,1.9,�L
2021/01/02,16:00,0.662,0.948,0.605,1.191,0.842,0.377,0.670,0.631,�k�k��,1.7,��
2021/01/02,16:10,0.663,0.946,0.607,1.190,0.842,0.376,0.670,0.632,�k��,1.2,��
2021/01/02,16:20,0.662,0.945,0.603,1.191,0.842,0.376,0.669,0.632,���k��,1.7,��
2021/01/02,16:30,0.660,0.947,0.605,1.190,0.843,0.377,0.670,0.632,���k��,2.5,��
2021/01/02,16:40,0.663,0.947,0.604,1.192,0.840,0.376,0.668,0.630,���k��,2.6,��
2021/01/02,16:50,0.661,0.946,0.606,1.191,0.842,0.376,0.668,0.630,�k��,2.6,�L
2021/01/02,17:00,0.661,0.949,0.605,1.190,0.845,0.376,0.668,0.632,�k�k��,2.9,��
2021/01/02,17:10,0.659,0.945,0.604,1.192,0.840,0.375,0.667,0.632,�k�k��,3.4,��
2021/01/02,17:20,0.661,0.947,0.602,1.190,0.840,0.374,0.667,0.631,�k�k��,3.3,��
2021/01/02,17:30,0.660,0.946,0.602,1.189,0.841,0.376,0.669,0.630,�k�k��,3.9,��
2021/01/02,17:40,0.660,0.945,0.602,1.188,0.840,0.375,0.667,0.631,�k�k��,3.3,��
2021/01/02,17:50,0.660,0.944,0.603,1.189,0.841,0.375,0.668,0.630,�k�k��,3.5,��
2021/01/02,18:00,0.661,0.946,0.604,1.188,0.841,0.377,0.670,0.630,�k�k��,3.3,��
2021/01/02,18:10,0.660,0.945,0.603,1.191,0.839,0.376,0.669,0.630,�k�k��,2.8,��
2021/01/02,18:20,0.659,0.945,0.604,1.189,0.841,0.374,0.668,0.629,�k�k��,2.6,��
2021/01/02,18:30,0.660,0.944,0.601,1.189,0.842,0.375,0.668,0.631,�k��,4.2,��
2021/01/02,18:40,0.660,0.944,0.602,1.191,0.840,0.375,0.668,0.631,�k�k��,4.8,��
2021/01/02,18:50,0.660,0.944,0.604,1.188,0.840,0.376,0.669,0.629,�k�k��,4.9,��
2021/01/02,19:00,0.660,0.947,0.603,1.190,0.840,0.375,0.669,0.631,�k��,4.4,��
2021/01/02,19:10,0.660,0.944,0.603,1.190,0.839,0.375,0.668,0.630,�k��,5.6,��
2021/01/02,19:20,0.659,0.944,0.603,1.191,0.840,0.375,0.668,0.629,�k��,5.8,��
2021/01/02,19:30,0.660,0.945,0.604,1.191,0.839,0.376,0.669,0.629,�k��,6.8,��
2021/01/02,19:40,0.660,0.946,0.603,1.190,0.838,0.375,0.669,0.631,�k��,8.0,��
2021/01/02,19:50,0.660,0.946,0.602,1.189,0.840,0.376,0.669,0.630,�k��,8.0,��
2021/01/02,20:00,0.662,0.944,0.602,1.191,0.839,0.373,0.668,0.632,�k��,7.8,��
2021/01/02,20:10,0.658,0.945,0.601,1.189,0.839,0.374,0.670,0.632,���k��,6.3,��
2021/01/02,20:20,0.660,0.945,0.600,1.192,0.840,0.372,0.668,0.630,���k��,5.1,��
2021/01/02,20:30,0.659,0.945,0.602,1.189,0.839,0.373,0.669,0.631,���k��,5.5,��
2021/01/02,20:40,0.660,0.947,0.600,1.190,0.839,0.374,0.669,0.631,���k��,6.4,��
2021/01/02,20:50,0.660,0.946,0.601,1.190,0.840,0.375,0.669,0.630,�k��,5.9,��
2021/01/02,21:00,0.659,0.944,0.601,1.191,0.838,0.374,0.669,0.631,�k��,6.3,��
2021/01/02,21:10,0.659,0.944,0.600,1.189,0.839,0.376,0.670,0.630,�k��,5.4,��
2021/01/02,21:20,0.659,0.943,0.601,1.190,0.838,0.374,0.668,0.630,�k��,3.9,��
2021/01/02,21:30,0.659,0.946,0.601,1.190,0.839,0.374,0.670,0.629,�k��,4.2,��
2021/01/02,21:40,0.659,0.944,0.600,1.190,0.839,0.375,0.667,0.629,�k��,4.5,��
2021/01/02,21:50,0.661,0.945,0.603,1.190,0.837,0.374,0.668,0.630,�k��,3.8,��
2021/01/02,22:00,0.659,0.942,0.602,1.189,0.840,0.376,0.669,0.630,�k��,3.0,��
2021/01/02,22:10,0.661,0.944,0.602,1.189,0.838,0.376,0.668,0.631,���k��,2.6,��
2021/01/02,22:20,0.661,0.944,0.602,1.188,0.837,0.375,0.668,0.631,���k��,5.3,��
2021/01/02,22:30,0.658,0.942,0.601,1.191,0.839,0.375,0.667,0.630,���k��,7.0,��
2021/01/02,22:40,0.660,0.945,0.601,1.191,0.837,0.374,0.668,0.630,���k��,8.3,��
2021/01/02,22:50,0.659,0.944,0.602,1.190,0.839,0.376,0.667,0.631,���k��,7.5,��
2021/01/02,23:00,0.660,0.944,0.602,1.191,0.834,0.374,0.668,0.630,���k��,7.2,��
2021/01/02,23:10,0.660,0.943,0.600,1.190,0.838,0.375,0.668,0.631,��,6.1,��
2021/01/02,23:20,0.660,0.942,0.601,1.190,0.838,0.374,0.669,0.630,���k��,7.1,��
2021/01/02,23:30,0.660,0.945,0.602,1.191,0.838,0.375,0.668,0.630,���k��,8.0,��
2021/01/02,23:40,0.659,0.943,0.600,1.190,0.839,0.375,0.667,0.631,���k��,8.1,��
2021/01/02,23:50,0.659,0.942,0.602,1.190,0.837,0.374,0.668,0.629,���k��,7.5,��
